SGE60R EDSB-UKOO

Flight info

Callsign SGE60R
Flight time 2h 23m
Altitude 35000
Route GUPIN N869 NOGRA Z650 VEMUT DCT ELMEK DCT ETUDA DCT PADKA L984 LUXAR L986 TEPNA/K0813F350 L986 INROG M860 KIV P133 SURAP
Aircraft A321/M-SDE3FGHIRWY/LB1

Departure

Time 2026-05-06 19:14
Airport Karlsruhe Baden-Baden Airport (EDSB)

Arrival

Time 2026-05-06 21:38
Airport Odesa International Airport (UKOO)
Time Latitude Longitude Altitude Speed Heading
2026-05-06 18:43 48.77967 8.08733 405 ft 0 kts 159°
2026-05-06 19:04 48.77967 8.08734 412 ft 0 kts 160°
2026-05-06 19:04 48.77966 8.08733 410 ft 0 kts 163°
2026-05-06 19:04 48.77961 8.08732 412 ft 2 kts 191°
2026-05-06 19:05 48.77963 8.08707 412 ft 7 kts 282°
2026-05-06 19:05 48.78003 8.08673 412 ft 5 kts 14°
2026-05-06 19:05 48.78023 8.08686 412 ft 1 kts 25°
2026-05-06 19:05 48.78046 8.08704 412 ft 9 kts 27°
2026-05-06 19:06 48.78113 8.08687 412 ft 10 kts 297°
2026-05-06 19:06 48.78146 8.08557 412 ft 18 kts 258°
2026-05-06 19:06 48.78104 8.08498 412 ft 0 kts 213°
2026-05-06 19:07 48.78070 8.08465 412 ft 15 kts 212°
2026-05-06 19:07 48.77998 8.08399 412 ft 21 kts 211°
2026-05-06 19:07 48.77827 8.08241 409 ft 7 kts 211°
2026-05-06 19:07 48.77825 8.08239 412 ft 0 kts 211°
2026-05-06 19:08 48.77785 8.08216 408 ft 11 kts 220°
2026-05-06 19:09 48.77800 8.08214 411 ft 7 kts 47°
2026-05-06 19:09 48.77860 8.08267 409 ft 20 kts 36°
2026-05-06 19:09 48.78011 8.08415 410 ft 26 kts 31°
2026-05-06 19:09 48.78165 8.08558 410 ft 27 kts 31°
2026-05-06 19:10 48.78316 8.08697 411 ft 23 kts 31°
2026-05-06 19:10 48.78441 8.08812 409 ft 19 kts 32°
2026-05-06 19:10 48.78538 8.08908 412 ft 15 kts 32°
2026-05-06 19:10 48.78616 8.08983 413 ft 16 kts 32°
2026-05-06 19:11 48.78775 8.09130 413 ft 29 kts 32°
2026-05-06 19:11 48.78845 8.09197 413 ft 0 kts 32°
2026-05-06 19:11 48.78850 8.09202 410 ft 5 kts 32°
2026-05-06 19:12 48.78929 8.09276 412 ft 21 kts 31°
2026-05-06 19:12 48.79031 8.09218 412 ft 18 kts 279°
2026-05-06 19:12 48.79047 8.09055 409 ft 11 kts 226°
2026-05-06 19:12 48.78975 8.09031 411 ft 12 kts 224°
2026-05-06 19:13 48.78910 8.08966 413 ft 12 kts 209°
2026-05-06 19:13 48.78893 8.08951 415 ft 0 kts 210°
2026-05-06 19:13 48.78892 8.08950 415 ft 1 kts 210°
2026-05-06 19:13 48.78602 8.08683 413 ft 82 kts 212°
2026-05-06 19:14 48.77941 8.08052 413 ft 137 kts 211°
2026-05-06 19:14 48.77052 8.07216 719 ft 154 kts 212°
2026-05-06 19:14 48.76161 8.06387 1427 ft 149 kts 209°
2026-05-06 19:14 48.75544 8.05854 1793 ft 153 kts 210°
2026-05-06 19:15 48.74207 8.04855 2266 ft 176 kts 187°
2026-05-06 19:15 48.72998 8.05370 2432 ft 197 kts 140°
2026-05-06 19:15 48.72456 8.06549 2535 ft 212 kts 109°
2026-05-06 19:15 48.72508 8.09655 2730 ft 240 kts 80°
2026-05-06 19:16 48.72722 8.11378 2866 ft 255 kts 78°
2026-05-06 19:16 48.73079 8.14080 3392 ft 266 kts 78°
2026-05-06 19:16 48.73432 8.16850 4101 ft 270 kts 79°
2026-05-06 19:16 48.73762 8.19673 4803 ft 275 kts 80°
2026-05-06 19:17 48.74077 8.22553 5506 ft 279 kts 80°
2026-05-06 19:17 48.74381 8.25421 6110 ft 280 kts 81°
2026-05-06 19:17 48.74684 8.28390 6740 ft 288 kts 81°
2026-05-06 19:17 48.74984 8.31419 7470 ft 291 kts 80°
2026-05-06 19:18 48.75281 8.34474 8154 ft 294 kts 82°
2026-05-06 19:18 48.75580 8.37548 8803 ft 297 kts 82°
2026-05-06 19:18 48.75888 8.40665 9482 ft 300 kts 82°
2026-05-06 19:18 48.76195 8.43803 10114 ft 304 kts 82°
2026-05-06 19:19 48.76517 8.47094 10273 ft 327 kts 82°
2026-05-06 19:19 48.76860 8.50604 10415 ft 347 kts 82°
2026-05-06 19:19 48.77217 8.54277 10853 ft 355 kts 82°
2026-05-06 19:19 48.77579 8.58005 11463 ft 359 kts 82°
2026-05-06 19:20 48.77941 8.61755 12103 ft 361 kts 82°
2026-05-06 19:20 48.78304 8.65526 12727 ft 363 kts 82°
2026-05-06 19:20 48.78669 8.69328 13329 ft 366 kts 82°
2026-05-06 19:20 48.79037 8.73154 13896 ft 368 kts 82°
2026-05-06 19:21 48.79401 8.77016 14460 ft 372 kts 83°
2026-05-06 19:21 48.79769 8.80907 15029 ft 374 kts 83°
2026-05-06 19:21 48.80142 8.84835 15588 ft 377 kts 83°
2026-05-06 19:21 48.80514 8.88786 16133 ft 380 kts 83°
2026-05-06 19:22 48.80887 8.92767 16662 ft 383 kts 83°
2026-05-06 19:22 48.81261 8.96777 17176 ft 386 kts 83°
2026-05-06 19:22 48.81638 9.00821 17677 ft 388 kts 83°
2026-05-06 19:22 48.82015 9.04890 18164 ft 391 kts 83°
2026-05-06 19:23 48.82393 9.08986 18631 ft 393 kts 83°
2026-05-06 19:23 48.82772 9.13117 19068 ft 396 kts 83°
2026-05-06 19:23 48.83150 9.17218 19522 ft 399 kts 83°
2026-05-06 19:23 48.83535 9.21402 19946 ft 402 kts 83°
2026-05-06 19:24 48.83919 9.25612 20360 ft 404 kts 83°
2026-05-06 19:24 48.84303 9.29857 20782 ft 407 kts 83°
2026-05-06 19:24 48.84686 9.34123 21199 ft 409 kts 84°
2026-05-06 19:24 48.85072 9.38423 21611 ft 412 kts 83°
2026-05-06 19:25 48.85459 9.42745 22004 ft 415 kts 84°
2026-05-06 19:25 48.85846 9.47092 22387 ft 417 kts 83°
2026-05-06 19:25 48.86235 9.51472 22750 ft 420 kts 84°
2026-05-06 19:25 48.86625 9.55875 23123 ft 422 kts 84°
2026-05-06 19:26 48.87015 9.60307 23488 ft 424 kts 84°
2026-05-06 19:26 48.87402 9.64762 23838 ft 427 kts 84°
2026-05-06 19:26 48.87835 9.69235 24181 ft 430 kts 79°
2026-05-06 19:26 48.88688 9.73610 24517 ft 434 kts 69°
2026-05-06 19:27 48.90029 9.77733 24824 ft 438 kts 59°
2026-05-06 19:27 48.91827 9.81494 25142 ft 442 kts 51°
2026-05-06 19:27 48.93780 9.85115 25446 ft 444 kts 51°
2026-05-06 19:27 48.95738 9.88759 25762 ft 446 kts 52°
2026-05-06 19:28 48.97700 9.92430 26050 ft 448 kts 52°
2026-05-06 19:28 48.99665 9.96127 26367 ft 450 kts 52°
2026-05-06 19:28 49.01635 9.99855 26661 ft 452 kts 52°
2026-05-06 19:28 49.03607 10.03599 26945 ft 455 kts 52°
2026-05-06 19:29 49.05597 10.07375 27192 ft 458 kts 52°
2026-05-06 19:29 49.07600 10.11166 27459 ft 460 kts 52°
2026-05-06 19:29 49.09614 10.14978 27729 ft 463 kts 52°
2026-05-06 19:29 49.11635 10.18806 28003 ft 464 kts 52°
2026-05-06 19:30 49.13666 10.22652 28256 ft 466 kts 51°
2026-05-06 19:30 49.15873 10.26286 28489 ft 469 kts 46°
2026-05-06 19:30 49.18173 10.29830 28714 ft 470 kts 46°
2026-05-06 19:30 49.20473 10.33395 28938 ft 472 kts 46°
2026-05-06 19:31 49.22780 10.36989 29182 ft 473 kts 46°
2026-05-06 19:31 49.25096 10.40587 29415 ft 476 kts 46°
2026-05-06 19:31 49.29761 10.47738 29881 ft 479 kts 46°
2026-05-06 19:32 49.32151 10.51381 30205 ft 478 kts 46°
2026-05-06 19:32 49.34509 10.54977 30522 ft 477 kts 46°
2026-05-06 19:32 49.36845 10.58590 30817 ft 477 kts 47°
2026-05-06 19:32 49.39118 10.62218 31098 ft 477 kts 47°
2026-05-06 19:33 49.41389 10.65926 31376 ft 477 kts 48°
2026-05-06 19:33 49.43661 10.69643 31648 ft 478 kts 47°
2026-05-06 19:33 49.45956 10.73335 31920 ft 477 kts 47°
2026-05-06 19:33 49.48265 10.76998 32171 ft 477 kts 46°
2026-05-06 19:34 49.50590 10.80651 32436 ft 478 kts 46°
2026-05-06 19:34 49.52920 10.84300 32703 ft 478 kts 46°
2026-05-06 19:34 49.55242 10.87944 32968 ft 477 kts 46°
2026-05-06 19:34 49.57563 10.91601 33218 ft 478 kts 46°
2026-05-06 19:35 49.59883 10.95275 33467 ft 478 kts 46°
2026-05-06 19:35 49.62193 10.98953 33717 ft 478 kts 46°
2026-05-06 19:35 49.64503 11.02646 33966 ft 478 kts 46°
2026-05-06 19:35 49.66811 11.06339 34200 ft 478 kts 46°
2026-05-06 19:36 49.69120 11.10029 34433 ft 478 kts 46°
2026-05-06 19:36 49.71430 11.13719 34681 ft 478 kts 46°
2026-05-06 19:36 49.73740 11.17412 34783 ft 477 kts 47°
2026-05-06 19:36 49.75857 11.21335 34804 ft 474 kts 56°
2026-05-06 19:37 49.78838 11.30350 34805 ft 471 kts 71°
2026-05-06 19:37 49.81180 11.39828 34802 ft 472 kts 70°
2026-05-06 19:38 49.83616 11.49187 34809 ft 472 kts 69°
2026-05-06 19:38 49.86130 11.58668 34803 ft 473 kts 70°
2026-05-06 19:39 49.87613 11.68409 34801 ft 466 kts 90°
2026-05-06 19:39 49.87627 11.78430 34793 ft 466 kts 91°
2026-05-06 19:40 49.88036 11.88472 34790 ft 467 kts 88°
2026-05-06 19:40 49.88564 11.98514 34790 ft 468 kts 88°
2026-05-06 19:41 49.88970 12.08580 34792 ft 468 kts 90°
2026-05-06 19:41 49.89275 12.18648 34792 ft 468 kts 90°
2026-05-06 19:42 49.89572 12.28731 34793 ft 468 kts 90°
2026-05-06 19:42 49.89893 12.38817 34794 ft 468 kts 90°
2026-05-06 19:43 49.90213 12.48887 34806 ft 467 kts 90°
2026-05-06 19:43 49.90520 12.58957 34806 ft 467 kts 90°
2026-05-06 19:44 49.90812 12.69027 34799 ft 467 kts 90°
2026-05-06 19:44 49.91098 12.79098 34812 ft 467 kts 90°
2026-05-06 19:45 49.91370 12.89159 34810 ft 466 kts 90°
2026-05-06 19:45 49.91635 12.99214 34810 ft 466 kts 90°
2026-05-06 19:46 49.91893 13.09189 34805 ft 466 kts 90°
2026-05-06 19:46 49.92144 13.19238 34805 ft 466 kts 90°
2026-05-06 19:47 49.92387 13.29283 34798 ft 466 kts 90°
2026-05-06 19:47 49.92618 13.39323 34806 ft 466 kts 90°
2026-05-06 19:48 49.92836 13.49372 34806 ft 465 kts 90°
2026-05-06 19:48 49.93053 13.59404 34799 ft 465 kts 90°
2026-05-06 19:49 49.93267 13.69426 34797 ft 465 kts 90°
2026-05-06 19:49 49.93460 13.79454 34795 ft 465 kts 91°
2026-05-06 19:50 49.93639 13.89484 34794 ft 465 kts 91°
2026-05-06 19:50 49.93819 13.99512 34787 ft 465 kts 91°
2026-05-06 19:51 49.93991 14.09541 34787 ft 465 kts 91°
2026-05-06 19:51 49.94151 14.19577 34787 ft 465 kts 91°
2026-05-06 19:52 49.94300 14.29607 34772 ft 464 kts 91°
2026-05-06 19:52 49.94448 14.39615 34762 ft 464 kts 90°
2026-05-06 19:53 49.94593 14.49608 34757 ft 463 kts 91°
2026-05-06 19:53 49.94707 14.59587 34766 ft 463 kts 91°
2026-05-06 19:54 49.94828 14.69536 34775 ft 463 kts 91°
2026-05-06 19:54 49.94944 14.79621 34786 ft 465 kts 91°
2026-05-06 19:55 49.95044 14.89597 34784 ft 466 kts 91°
2026-05-06 19:55 49.95147 14.99669 34797 ft 469 kts 91°
2026-05-06 19:56 49.95238 15.09814 34788 ft 469 kts 91°
2026-05-06 19:56 49.95303 15.19927 34787 ft 468 kts 91°
2026-05-06 19:57 49.95361 15.30018 34782 ft 467 kts 91°
2026-05-06 19:57 49.95420 15.40082 34772 ft 467 kts 91°
2026-05-06 19:58 49.95471 15.50173 34767 ft 467 kts 91°
2026-05-06 19:58 49.95517 15.60268 34762 ft 467 kts 92°
2026-05-06 19:59 49.95552 15.70356 34761 ft 468 kts 92°
2026-05-06 19:59 49.95571 15.80454 34759 ft 468 kts 92°
2026-05-06 20:00 49.95581 15.90557 34755 ft 468 kts 92°
2026-05-06 20:00 49.95585 16.00655 34757 ft 468 kts 92°
2026-05-06 20:01 49.95585 16.10768 34757 ft 468 kts 92°
2026-05-06 20:01 49.95572 16.20808 34759 ft 468 kts 92°
2026-05-06 20:02 49.95554 16.30917 34758 ft 468 kts 92°
2026-05-06 20:02 49.95530 16.41023 34759 ft 468 kts 92°
2026-05-06 20:03 49.95492 16.51122 34760 ft 468 kts 92°
2026-05-06 20:03 49.95438 16.61209 34752 ft 467 kts 92°
2026-05-06 20:04 49.95389 16.71285 34749 ft 467 kts 92°
2026-05-06 20:04 49.95329 16.81359 34753 ft 466 kts 92°
2026-05-06 20:05 49.95270 16.89729 34758 ft 467 kts 92°
2026-05-06 20:05 49.95185 16.99884 34768 ft 467 kts 92°
2026-05-06 20:06 49.95089 17.09908 34781 ft 468 kts 92°
2026-05-06 20:06 49.94985 17.20003 34790 ft 468 kts 92°
2026-05-06 20:07 49.94883 17.30093 34790 ft 468 kts 92°
2026-05-06 20:07 49.94771 17.40187 34790 ft 467 kts 93°
2026-05-06 20:08 49.94652 17.50276 34794 ft 468 kts 93°
2026-05-06 20:08 49.94521 17.60372 34796 ft 468 kts 93°
2026-05-06 20:09 49.94379 17.70473 34797 ft 468 kts 93°
2026-05-06 20:09 49.94222 17.80584 34794 ft 468 kts 93°
2026-05-06 20:10 49.94062 17.90694 34799 ft 468 kts 93°
2026-05-06 20:10 49.93898 18.00803 34803 ft 469 kts 93°
2026-05-06 20:11 49.93723 18.10909 34802 ft 468 kts 93°
2026-05-06 20:11 49.93537 18.21014 34803 ft 468 kts 94°
2026-05-06 20:12 49.93355 18.31114 34799 ft 468 kts 92°
2026-05-06 20:12 49.93413 18.41222 34805 ft 469 kts 90°
2026-05-06 20:13 49.93598 18.51339 34804 ft 469 kts 90°
2026-05-06 20:13 49.93747 18.61458 34812 ft 469 kts 90°
2026-05-06 20:14 49.93842 18.71568 34817 ft 468 kts 90°
2026-05-06 20:14 49.93913 18.81674 34816 ft 468 kts 90°
2026-05-06 20:15 49.93977 18.91774 34821 ft 468 kts 90°
2026-05-06 20:15 49.94025 19.01798 34832 ft 467 kts 91°
2026-05-06 20:16 49.94054 19.11885 34837 ft 467 kts 90°
2026-05-06 20:16 49.94085 19.21970 34834 ft 467 kts 90°
2026-05-06 20:17 49.94104 19.32041 34831 ft 467 kts 91°
2026-05-06 20:17 49.94107 19.42109 34832 ft 466 kts 91°
2026-05-06 20:18 49.94107 19.52182 34824 ft 467 kts 90°
2026-05-06 20:18 49.94104 19.62250 34815 ft 466 kts 91°
2026-05-06 20:19 49.94090 19.72311 34832 ft 466 kts 91°
2026-05-06 20:19 49.94065 19.82371 34834 ft 466 kts 91°
2026-05-06 20:20 49.94029 19.92422 34831 ft 465 kts 91°
2026-05-06 20:20 49.93997 20.02470 34833 ft 466 kts 91°
2026-05-06 20:21 49.93961 20.12520 34834 ft 465 kts 91°
2026-05-06 20:21 49.93911 20.22566 34834 ft 466 kts 91°
2026-05-06 20:22 49.93841 20.32613 34837 ft 465 kts 91°
2026-05-06 20:22 49.93762 20.42658 34841 ft 465 kts 91°
2026-05-06 20:23 49.93688 20.52699 34851 ft 465 kts 91°
2026-05-06 20:23 49.93601 20.62745 34860 ft 465 kts 91°
2026-05-06 20:24 49.93496 20.72773 34868 ft 464 kts 91°
2026-05-06 20:24 49.93401 20.82791 34869 ft 463 kts 91°
2026-05-06 20:25 49.93301 20.92788 34873 ft 463 kts 91°
2026-05-06 20:25 49.93187 21.02712 34876 ft 463 kts 91°
2026-05-06 20:26 49.93034 21.12688 34882 ft 462 kts 95°
2026-05-06 20:26 49.91653 21.22346 34887 ft 459 kts 113°
2026-05-06 20:27 49.89119 21.31408 34889 ft 458 kts 115°
2026-05-06 20:27 49.86583 21.40451 34887 ft 457 kts 115°
2026-05-06 20:28 49.84051 21.49481 34886 ft 456 kts 115°
2026-05-06 20:28 49.81513 21.58483 34884 ft 456 kts 115°
2026-05-06 20:29 49.78951 21.67471 34881 ft 456 kts 115°
2026-05-06 20:29 49.76388 21.76444 34886 ft 456 kts 115°
2026-05-06 20:30 49.72545 21.89862 34881 ft 454 kts 115°
2026-05-06 20:31 49.69987 21.98788 34881 ft 454 kts 115°
2026-05-06 20:31 49.67418 22.07700 34879 ft 454 kts 115°
2026-05-06 20:32 49.64840 22.16605 34879 ft 454 kts 115°
2026-05-06 20:32 49.62254 22.25497 34879 ft 454 kts 115°
2026-05-06 20:33 49.59664 22.34382 34882 ft 454 kts 115°
2026-05-06 20:33 49.57069 22.43250 34876 ft 454 kts 115°
2026-05-06 20:34 49.54480 22.52052 34881 ft 454 kts 115°
2026-05-06 20:34 49.51868 22.60903 34877 ft 454 kts 115°
2026-05-06 20:35 49.49253 22.69744 34878 ft 454 kts 115°
2026-05-06 20:35 49.46650 22.78605 34877 ft 455 kts 115°
2026-05-06 20:36 49.44055 22.87447 34878 ft 453 kts 115°
2026-05-06 20:36 49.41457 22.96273 34876 ft 454 kts 115°
2026-05-06 20:37 49.38843 23.05101 34880 ft 454 kts 115°
2026-05-06 20:37 49.36212 23.13914 34887 ft 454 kts 115°
2026-05-06 20:38 49.33579 23.22733 34897 ft 455 kts 115°
2026-05-06 20:38 49.30942 23.31532 34901 ft 454 kts 115°
2026-05-06 20:39 49.28293 23.40320 34905 ft 454 kts 115°
2026-05-06 20:39 49.25637 23.49092 34907 ft 454 kts 115°
2026-05-06 20:40 49.22978 23.57855 34908 ft 454 kts 115°
2026-05-06 20:40 49.20318 23.66610 34910 ft 454 kts 115°
2026-05-06 20:41 49.17654 23.75352 34913 ft 454 kts 116°
2026-05-06 20:41 49.14993 23.84024 34915 ft 454 kts 116°
2026-05-06 20:42 49.12314 23.92743 34914 ft 453 kts 116°
2026-05-06 20:42 49.09624 24.01445 34917 ft 453 kts 116°
2026-05-06 20:43 49.06935 24.10144 34924 ft 453 kts 116°
2026-05-06 20:43 49.04243 24.18832 34929 ft 453 kts 116°
2026-05-06 20:44 49.01543 24.27500 34935 ft 453 kts 116°
2026-05-06 20:44 48.98831 24.36150 34938 ft 453 kts 116°
2026-05-06 20:45 48.96115 24.44789 34938 ft 452 kts 116°
2026-05-06 20:45 48.93399 24.53431 34941 ft 453 kts 116°
2026-05-06 20:46 48.90671 24.62056 34943 ft 453 kts 116°
2026-05-06 20:46 48.88070 24.70765 34945 ft 453 kts 108°
2026-05-06 20:47 48.86161 24.79885 34949 ft 453 kts 108°
2026-05-06 20:47 48.84247 24.88991 34953 ft 453 kts 108°
2026-05-06 20:48 48.82325 24.98022 34957 ft 452 kts 108°
2026-05-06 20:48 48.80379 25.07101 34957 ft 452 kts 108°
2026-05-06 20:49 48.78442 25.16172 34959 ft 453 kts 108°
2026-05-06 20:49 48.76497 25.25250 34961 ft 453 kts 108°
2026-05-06 20:50 48.74536 25.34312 34965 ft 453 kts 108°
2026-05-06 20:50 48.72568 25.43364 34966 ft 452 kts 108°
2026-05-06 20:51 48.70594 25.52403 34969 ft 452 kts 108°
2026-05-06 20:51 48.68617 25.61422 34971 ft 451 kts 108°
2026-05-06 20:52 48.66971 25.68905 34969 ft 451 kts 108°
2026-05-06 20:52 48.64979 25.77896 34969 ft 450 kts 108°
2026-05-06 20:53 48.62983 25.86873 34967 ft 450 kts 108°
2026-05-06 20:53 48.60978 25.95843 34970 ft 450 kts 108°
2026-05-06 20:54 48.58970 26.04801 34969 ft 450 kts 108°
2026-05-06 20:54 48.56959 26.13739 34969 ft 449 kts 108°
2026-05-06 20:55 48.54614 26.24111 34966 ft 449 kts 108°
2026-05-06 20:55 48.52917 26.31586 34966 ft 450 kts 108°
2026-05-06 20:56 48.50882 26.40498 34974 ft 449 kts 108°
2026-05-06 20:56 48.48514 26.50847 34979 ft 449 kts 108°
2026-05-06 20:57 48.46800 26.58303 34981 ft 449 kts 108°
2026-05-06 20:57 48.44746 26.67186 34980 ft 449 kts 109°
2026-05-06 20:58 48.42661 26.76039 34976 ft 449 kts 112°
2026-05-06 20:58 48.39451 26.84046 34974 ft 448 kts 130°
2026-05-06 20:59 48.35051 26.90677 34970 ft 448 kts 136°
2026-05-06 20:59 48.30572 26.97203 34968 ft 448 kts 136°
2026-05-06 21:00 48.26090 27.03719 34972 ft 449 kts 136°
2026-05-06 21:00 48.21626 27.10180 34978 ft 449 kts 136°
2026-05-06 21:01 48.17124 27.16682 34980 ft 449 kts 136°
2026-05-06 21:01 48.12623 27.23174 34984 ft 449 kts 136°
2026-05-06 21:02 48.08121 27.29648 34987 ft 449 kts 136°
2026-05-06 21:02 48.03612 27.36117 34985 ft 449 kts 136°
2026-05-06 21:03 47.99103 27.42583 34986 ft 450 kts 136°
2026-05-06 21:03 47.94585 27.49049 34984 ft 450 kts 136°
2026-05-06 21:04 47.90064 27.55497 34999 ft 450 kts 136°
2026-05-06 21:04 47.85524 27.61932 35004 ft 450 kts 136°
2026-05-06 21:05 47.80982 27.68351 35017 ft 450 kts 136°
2026-05-06 21:05 47.76443 27.74772 35022 ft 450 kts 136°
2026-05-06 21:06 47.71902 27.81174 35020 ft 450 kts 136°
2026-05-06 21:06 47.67368 27.87563 35019 ft 449 kts 136°
2026-05-06 21:07 47.62821 27.93928 35021 ft 449 kts 136°
2026-05-06 21:07 47.58303 28.00241 35019 ft 449 kts 136°
2026-05-06 21:08 47.53757 28.06587 35019 ft 449 kts 136°
2026-05-06 21:08 47.49213 28.12920 35022 ft 449 kts 136°
2026-05-06 21:09 47.44664 28.19243 35013 ft 448 kts 136°
2026-05-06 21:09 47.40110 28.25543 35019 ft 448 kts 136°
2026-05-06 21:10 47.35562 28.31835 35020 ft 448 kts 136°
2026-05-06 21:10 47.31007 28.38117 35013 ft 449 kts 136°
2026-05-06 21:11 47.26428 28.44417 35013 ft 452 kts 136°
2026-05-06 21:11 47.24128 28.47575 34841 ft 453 kts 136°
2026-05-06 21:11 47.21800 28.50767 33734 ft 464 kts 136°
2026-05-06 21:11 47.19421 28.54026 32810 ft 469 kts 136°
2026-05-06 21:12 47.17032 28.57296 32126 ft 468 kts 136°
2026-05-06 21:12 47.14656 28.60539 31534 ft 465 kts 136°
2026-05-06 21:12 47.12293 28.63760 30995 ft 461 kts 136°
2026-05-06 21:12 47.09948 28.66953 30457 ft 457 kts 136°
2026-05-06 21:13 47.07627 28.70110 29916 ft 454 kts 136°
2026-05-06 21:13 47.05321 28.73244 29369 ft 450 kts 136°
2026-05-06 21:13 47.03016 28.76373 28167 ft 459 kts 136°
2026-05-06 21:14 47.01597 28.78295 26929 ft 476 kts 136°
2026-05-06 21:14 46.99136 28.81628 25818 ft 482 kts 136°
2026-05-06 21:14 46.96706 28.84910 25527 ft 468 kts 136°
2026-05-06 21:15 46.94352 28.88093 25279 ft 454 kts 135°
2026-05-06 21:15 46.92325 28.91510 25098 ft 436 kts 124°
2026-05-06 21:15 46.90795 28.95234 24926 ft 421 kts 118°
2026-05-06 21:15 46.89407 28.98916 24091 ft 408 kts 117°
2026-05-06 21:16 46.88064 29.02477 23509 ft 388 kts 117°
2026-05-06 21:16 46.86800 29.05823 23137 ft 366 kts 117°
2026-05-06 21:16 46.85581 29.09045 22725 ft 361 kts 117°
2026-05-06 21:16 46.84374 29.12235 22310 ft 357 kts 117°
2026-05-06 21:17 46.83176 29.15397 21896 ft 354 kts 117°
2026-05-06 21:17 46.81985 29.18530 21480 ft 351 kts 117°
2026-05-06 21:17 46.80804 29.21637 21062 ft 349 kts 117°
2026-05-06 21:17 46.79633 29.24723 20646 ft 346 kts 117°
2026-05-06 21:18 46.78471 29.27782 20240 ft 343 kts 118°
2026-05-06 21:18 46.77314 29.30812 19827 ft 341 kts 117°
2026-05-06 21:18 46.76163 29.33822 19417 ft 338 kts 118°
2026-05-06 21:18 46.75022 29.36803 19004 ft 336 kts 117°
2026-05-06 21:19 46.73886 29.39773 18584 ft 334 kts 117°
2026-05-06 21:19 46.72757 29.42725 18201 ft 332 kts 117°
2026-05-06 21:19 46.71635 29.45651 17800 ft 330 kts 117°
2026-05-06 21:19 46.70532 29.48523 17422 ft 328 kts 117°
2026-05-06 21:20 46.69421 29.51411 17024 ft 326 kts 118°
2026-05-06 21:20 46.68315 29.54282 16640 ft 324 kts 118°
2026-05-06 21:20 46.67214 29.57132 16258 ft 322 kts 118°
2026-05-06 21:20 46.66134 29.59927 15886 ft 320 kts 118°
2026-05-06 21:21 46.65046 29.62747 15513 ft 318 kts 118°
2026-05-06 21:21 46.63965 29.65549 15133 ft 317 kts 118°
2026-05-06 21:21 46.62887 29.68336 14762 ft 315 kts 118°
2026-05-06 21:21 46.61815 29.71105 14390 ft 313 kts 118°
2026-05-06 21:22 46.60751 29.73858 14018 ft 312 kts 118°
2026-05-06 21:22 46.59690 29.76593 13647 ft 310 kts 118°
2026-05-06 21:22 46.58634 29.79312 13275 ft 308 kts 118°
2026-05-06 21:22 46.57579 29.82014 12900 ft 307 kts 118°
2026-05-06 21:23 46.56528 29.84709 12532 ft 306 kts 118°
2026-05-06 21:23 46.55507 29.87411 12149 ft 303 kts 113°
2026-05-06 21:23 46.54808 29.90282 11776 ft 300 kts 102°
2026-05-06 21:23 46.54524 29.93269 11405 ft 297 kts 90°
2026-05-06 21:24 46.54555 29.96262 11033 ft 296 kts 88°
2026-05-06 21:24 46.54601 29.99240 10659 ft 294 kts 88°
2026-05-06 21:24 46.54641 30.02206 10292 ft 292 kts 88°
2026-05-06 21:24 46.54678 30.05129 10031 ft 287 kts 88°
2026-05-06 21:25 46.54713 30.08002 9975 ft 284 kts 88°
2026-05-06 21:25 46.54747 30.10870 9828 ft 285 kts 89°
2026-05-06 21:25 46.54782 30.13757 9411 ft 285 kts 89°
2026-05-06 21:25 46.54814 30.16623 9036 ft 283 kts 89°
2026-05-06 21:26 46.54846 30.19464 8691 ft 280 kts 89°
2026-05-06 21:26 46.54877 30.22285 8325 ft 278 kts 89°
2026-05-06 21:26 46.54905 30.25091 7945 ft 277 kts 89°
2026-05-06 21:26 46.54934 30.27877 7588 ft 275 kts 89°
2026-05-06 21:27 46.54965 30.30644 7240 ft 273 kts 88°
2026-05-06 21:27 46.55237 30.33353 6865 ft 271 kts 75°
2026-05-06 21:27 46.55781 30.35968 6441 ft 271 kts 73°
2026-05-06 21:27 46.56320 30.38567 6162 ft 264 kts 73°
2026-05-06 21:28 46.57024 30.40919 6031 ft 254 kts 51°
2026-05-06 21:28 46.58398 30.42385 5901 ft 244 kts 18°
2026-05-06 21:28 46.60054 30.42514 5636 ft 240 kts 346°
2026-05-06 21:28 46.61660 30.41817 5298 ft 241 kts 343°
2026-05-06 21:29 46.63262 30.41106 4995 ft 241 kts 343°
2026-05-06 21:29 46.64864 30.40401 4689 ft 240 kts 343°
2026-05-06 21:29 46.66485 30.39920 4383 ft 238 kts
2026-05-06 21:29 46.68044 30.40584 4073 ft 235 kts 35°
2026-05-06 21:30 46.69129 30.42319 3741 ft 234 kts 66°
2026-05-06 21:30 46.69649 30.44566 3391 ft 235 kts 74°
2026-05-06 21:30 46.70116 30.46848 3127 ft 232 kts 74°
2026-05-06 21:30 46.70540 30.49059 2978 ft 221 kts 81°
2026-05-06 21:31 46.70572 30.51232 2781 ft 215 kts 100°
2026-05-06 21:31 46.70122 30.53300 2489 ft 211 kts 119°
2026-05-06 21:31 46.69258 30.54996 2244 ft 208 kts 138°
2026-05-06 21:31 46.68088 30.56194 1963 ft 205 kts 156°
2026-05-06 21:32 46.66748 30.56862 1685 ft 203 kts 165°
2026-05-06 21:32 46.64050 30.58036 1156 ft 198 kts 165°
2026-05-06 21:32 46.62785 30.58588 1046 ft 179 kts 164°
2026-05-06 21:33 46.61649 30.59083 992 ft 163 kts 165°
2026-05-06 21:33 46.60608 30.59535 997 ft 150 kts 165°
2026-05-06 21:33 46.59623 30.59963 985 ft 146 kts 165°
2026-05-06 21:33 46.58655 30.60384 984 ft 145 kts 165°
2026-05-06 21:34 46.57693 30.60801 998 ft 144 kts 165°
2026-05-06 21:34 46.56740 30.61216 1199 ft 143 kts 165°
2026-05-06 21:34 46.55782 30.61631 1466 ft 144 kts 165°
2026-05-06 21:34 46.54818 30.62050 1726 ft 145 kts 165°
2026-05-06 21:35 46.53843 30.62473 1935 ft 148 kts 165°
2026-05-06 21:35 46.52855 30.62899 1928 ft 147 kts 165°
2026-05-06 21:35 46.51877 30.63324 1798 ft 146 kts 165°
2026-05-06 21:35 46.50904 30.63746 1634 ft 146 kts 165°
2026-05-06 21:36 46.49935 30.64166 1447 ft 145 kts 165°
2026-05-06 21:36 46.48969 30.64584 1266 ft 144 kts 165°
2026-05-06 21:36 46.48007 30.65001 1076 ft 144 kts 165°
2026-05-06 21:36 46.47048 30.65417 877 ft 144 kts 165°
2026-05-06 21:37 46.46104 30.65823 661 ft 143 kts 164°
2026-05-06 21:37 46.45153 30.66244 493 ft 143 kts 164°
2026-05-06 21:37 46.44187 30.66654 303 ft 143 kts 165°
2026-05-06 21:37 46.43261 30.67059 176 ft 135 kts 165°
2026-05-06 21:38 46.42569 30.67354 173 ft 61 kts 163°
2026-05-06 21:38 46.42279 30.67484 172 ft 34 kts 163°
2026-05-06 21:38 46.42067 30.67577 173 ft 31 kts 163°
2026-05-06 21:38 46.41868 30.67663 173 ft 29 kts 163°
2026-05-06 21:39 46.41685 30.67740 174 ft 26 kts 164°
2026-05-06 21:39 46.41514 30.67814 176 ft 25 kts 160°
2026-05-06 21:39 46.41447 30.67939 174 ft 9 kts 71°
2026-05-06 21:39 46.41464 30.68039 173 ft 15 kts 77°
2026-05-06 21:40 46.41498 30.68240 173 ft 25 kts 80°
2026-05-06 21:40 46.41529 30.68424 173 ft 28 kts 73°
2026-05-06 21:40 46.41647 30.68468 173 ft 18 kts 351°
2026-05-06 21:40 46.41828 30.68398 173 ft 32 kts 343°
2026-05-06 21:41 46.42034 30.68307 173 ft 37 kts 342°
2026-05-06 21:41 46.42267 30.68208 173 ft 29 kts 345°
2026-05-06 21:41 46.42435 30.68141 173 ft 25 kts 343°
2026-05-06 21:41 46.42598 30.68070 173 ft 24 kts 343°
2026-05-06 21:42 46.42758 30.68001 173 ft 24 kts 343°
2026-05-06 21:42 46.42863 30.67956 173 ft 24 kts 343°
2026-05-06 21:42 46.43018 30.67890 173 ft 21 kts 343°
2026-05-06 21:42 46.43198 30.67812 173 ft 18 kts 342°
2026-05-06 21:43 46.43274 30.67778 173 ft 16 kts 343°
2026-05-06 21:43 46.43370 30.67739 173 ft 13 kts 345°
2026-05-06 21:43 46.43446 30.67709 173 ft 11 kts 344°
2026-05-06 21:43 46.43563 30.67658 173 ft 20 kts 344°
2026-05-06 21:44 46.43698 30.67601 173 ft 20 kts 343°
2026-05-06 21:44 46.43819 30.67546 173 ft 16 kts 341°
2026-05-06 21:44 46.43916 30.67497 173 ft 13 kts 334°
2026-05-06 21:44 46.43932 30.67410 173 ft 9 kts 264°
2026-05-06 21:45 46.43987 30.67327 173 ft 19 kts 344°
2026-05-06 21:45 46.44120 30.67297 173 ft 16 kts 350°
2026-05-06 21:45 46.44240 30.67277 173 ft 7 kts 26°
2026-05-06 21:45 46.44249 30.67311 173 ft 5 kts 76°
2026-05-06 21:46 46.44253 30.67339 173 ft 2 kts 79°
2026-05-06 21:46 46.44256 30.67360 173 ft 1 kts 79°
2026-05-06 21:46 46.44257 30.67368 173 ft 2 kts 79°